Location: Allos
(44.2333°N, 6.6333°E)
Time: 18:00:27
(UTC+00:00)

PSLV R/B - Pass Details

Date: 01 December 2020
Orbit: 568 x 597 km, 98.2° (Epoch: 22 January)

Event Time Altitude Azimuth Distance (km) Brightness Sun altitude
Exits shadow 17:42:17 43° 63° (ENE) 813 4.2 -18.5°
Maximum altitude 17:43:04 49° 100° (E) 736 4.0 -18.6°
Drops below altitude 10° 17:46:59 10° 176° (S) 1,865 6.6 -19.3°
Sets 17:49:10 0° 182° (S) 2,759 7.6 -19.7°
